Flugplatz Cologne Bonn

Bericht für EDDK

vom 17.09. um 13:20 UTC

Wind 11 kt aus 290°

Sichtweite 10 km oder mehr

gering bewölkt in 4800 ft

Temperatur 18.0°C

Taupunkt 7.0°C

Luftfeuchtigkeit 49%

Luftdruck 1021 hPa

keine wesentliche Wetteränderung innerhalb den nächsten 2 Stunden zu erwarten

EDDK 171320Z 29011KT 260V350 9999 FEW048 18/07 Q1021 NOSIG

Prognose für EDDK

vom 17.09. um 00:00 UTC

Zwischen 00:00 UTC und 00:00 UTC

Wind 10 kt aus 310°

Sichtweite 10 km oder mehr

gering bewölkt in 4000 ft


Zwischen 00:00 UTC und 00:00 UTC zeitweise

Wind 15 kt aus 320° in Böen 25 kt


Am 18.09. zwischen 00:00 UTC und 00:00 UTC zeitweise

variable Windrichtung mit 3 kt

TAF EDDK 171100Z 1712/1818 31010KT 9999 FEW040 TEMPO 1712/1716 32015G25KT TEMPO 1800/1808 VRB03KT
Impressum